| time (UTC) | temp C | wind direction | speed KPH | gust KPH | rain 1hr cm | rain 24hr cm | rain mn cm | humidity % | barometer mb |
| 20260507101536 | 12 | 115 | 0.0 | 0.0 | 0.00 | 0.36 | 0.03 | 53 | 1013.8 |
| 20260507100034 | 12 | 277 | 0.0 | 3.2 | 0.00 | 0.36 | 0.03 | 52 | 1013.7 |
| 20260507094527 | 12 | 162 | 0.0 | 0.0 | 0.00 | 0.36 | 0.03 | 49 | 1013.7 |
| 20260507093022 | 12 | 308 | 0.0 | 3.2 | 0.00 | 0.36 | 0.03 | 41 | 1013.6 |
| 20260507091524 | 11 | 301 | 0.0 | 4.8 | 0.00 | 0.36 | 0.03 | 37 | 1013.8 |
| 20260507090016 | 10 | 273 | 0.0 | 1.6 | 0.00 | 0.36 | 0.03 | 37 | 1014.0 |
| 20260507084510 | 10 | 276 | 0.0 | 8.0 | 0.00 | 0.38 | 0.03 | 38 | 1014.1 |
| 20260507083007 | 10 | 295 | 0.0 | 0.0 | 0.00 | 0.38 | 0.03 | 22 | 1014.0 |
| 20260507081501 | 9 | 343 | 0.0 | 0.0 | 0.00 | 0.38 | 0.03 | 5 | 1014.1 |
| 20260507080114 | 8 | 32 | 0.0 | 0.0 | 0.00 | 0.38 | 0.03 | 1 | 1014.1 |
| 20260507074553 | 8 | 86 | 0.0 | 0.0 | 0.00 | 0.41 | 0.03 | 1 | 1014.0 |
| 20260507073049 | 8 | 86 | 0.0 | 0.0 | 0.00 | 0.41 | 0.03 | 1 | 1014.1 |
| 20260507071602 | 7 | 86 | 0.0 | 0.0 | 0.00 | 0.41 | 0.03 | 1 | 1014.1 |
| 20260507070040 | 7 | 86 | 0.0 | 0.0 | 0.00 | 0.41 | 0.03 | 1 | 1014.1 |
| 20260507064536 | 6 | 86 | 0.0 | 0.0 | 0.00 | 0.41 | 0.03 | 1 | 1014.2 |
| 20260507063034 | 6 | 101 | 0.0 | 0.0 | 0.00 | 0.41 | 0.03 | 1 | 1014.3 |
| 20260507061526 | 5 | 101 | 0.0 | 0.0 | 0.00 | 0.41 | 0.03 | 1 | 1014.3 |
| 20260507060030 | 5 | 101 | 0.0 | 0.0 | 0.00 | 0.41 | 0.03 | 1 | 1014.2 |
| 20260507054518 | 5 | 101 | 0.0 | 0.0 | 0.00 | 0.41 | 0.03 | 1 | 1014.2 |
| 20260507053014 | 5 | 101 | 0.0 | 0.0 | 0.00 | 0.41 | 0.03 | 1 | 1014.0 |
| 20260507051512 | 4 | 101 | 0.0 | 0.0 | 0.00 | 0.41 | 0.03 | 1 | 1014.0 |
| 20260507050005 | 4 | 101 | 0.0 | 0.0 | 0.00 | 0.41 | 0.03 | 1 | 1013.9 |
| 20260507044600 | 3 | 101 | 0.0 | 0.0 | 0.00 | 0.41 | 0.03 | 1 | 1013.7 |
| 20260507043056 | 3 | 101 | 0.0 | 0.0 | 0.00 | 0.41 | 0.03 | 1 | 1013.6 |
| 20260507041552 | 3 | 101 | 0.0 | 0.0 | 0.00 | 0.41 | 0.03 | 1 | 1013.5 |
| 20260507040047 | 3 | 101 | 0.0 | 0.0 | 0.00 | 0.41 | 0.03 | 1 | 1013.3 |
| 20260507034543 | 3 | 101 | 0.0 | 0.0 | 0.00 | 0.41 | 0.03 | 1 | 1013.3 |
| 20260507033044 | 3 | 101 | 0.0 | 0.0 | 0.00 | 0.41 | 0.03 | 1 | 1013.2 |
| 20260507031533 | 3 | 101 | 0.0 | 0.0 | 0.00 | 0.41 | 0.03 | 1 | 1013.2 |
| 20260507030029 | 3 | 101 | 0.0 | 0.0 | 0.00 | 0.41 | 0.03 | 1 | 1013.2 |
| 20260507024526 | 4 | 101 | 0.0 | 0.0 | 0.00 | 0.41 | 0.03 | 1 | 1013.2 |
| 20260507023026 | 4 | 101 | 0.0 | 0.0 | 0.00 | 0.41 | 0.03 | 1 | 1013.2 |
| 20260507021517 | 4 | 101 | 0.0 | 0.0 | 0.00 | 0.41 | 0.03 | 1 | 1013.2 |
| 20260507020018 | 4 | 101 | 0.0 | 0.0 | 0.00 | 0.41 | 0.03 | 1 | 1013.2 |
| 20260507014512 | 4 | 101 | 0.0 | 0.0 | 0.00 | 0.41 | 0.03 | 1 | 1013.3 |
| 20260507013005 | 4 | 101 | 0.0 | 0.0 | 0.00 | 0.41 | 0.03 | 1 | 1013.2 |
| 20260507011504 | 3 | 101 | 0.0 | 0.0 | 0.00 | 0.41 | 0.03 | 1 | 1013.1 |
| 20260507010104 | 3 | 101 | 0.0 | 0.0 | 0.00 | 0.41 | 0.03 | 1 | 1013.1 |
| 20260507004605 | 3 | 101 | 0.0 | 0.0 | 0.00 | 0.41 | 0.03 | 1 | 1013.0 |
| 20260507003049 | 4 | 101 | 0.0 | 0.0 | 0.00 | 0.41 | 0.03 | 1 | 1013.0 |
| 20260507001550 | 4 | 101 | 0.0 | 0.0 | 0.03 | 0.41 | 0.03 | 1 | 1013.0 |
| 20260507000039 | 4 | 96 | 0.0 | 1.6 | 0.03 | 0.41 | 0.03 | 1 | 1013.1 |
| 20260506234535 | 3 | 96 | 0.0 | 0.0 | 0.03 | 0.41 | 0.03 | 1 | 1013.2 |
| 20260506233030 | 3 | 96 | 0.0 | 0.0 | 0.03 | 0.41 | 0.03 | 1 | 1013.2 |
| 20260506231526 | 3 | 96 | 0.0 | 0.0 | 0.00 | 0.38 | 0.00 | 1 | 1013.2 |
| 20260506230022 | 3 | 96 | 0.0 | 0.0 | 0.00 | 0.38 | 0.00 | 1 | 1013.2 |
| 20260506224518 | 4 | 96 | 0.0 | 3.2 | 0.00 | 0.38 | 0.00 | 1 | 1013.2 |
| 20260506223014 | 4 | 96 | 0.0 | 0.0 | 0.00 | 0.38 | 0.00 | 1 | 1013.2 |
| 20260506221510 | 4 | 96 | 0.0 | 0.0 | 0.00 | 0.38 | 0.00 | 1 | 1013.2 |
| 20260506220013 | 5 | 96 | 0.0 | 0.0 | 0.00 | 0.38 | 0.00 | 1 | 1013.2 |
| 20260506214605 | 5 | 96 | 0.0 | 0.0 | 0.00 | 0.38 | 0.38 | 1 | 1013.1 |
| 20260506213056 | 5 | 96 | 0.0 | 0.0 | 0.00 | 0.38 | 0.38 | 1 | 1013.1 |
| 20260506211553 | 5 | 96 | 0.0 | 0.0 | 0.00 | 0.38 | 0.38 | 1 | 1013.2 |
| 20260506210047 | 5 | 96 | 0.0 | 0.0 | 0.00 | 0.38 | 0.38 | 1 | 1013.1 |
| 20260506204549 | 5 | 96 | 0.0 | 0.0 | 0.00 | 0.41 | 0.38 | 1 | 1012.8 |
| 20260506203039 | 5 | 96 | 0.0 | 0.0 | 0.00 | 0.41 | 0.38 | 1 | 1012.7 |
| 20260506201534 | 5 | 96 | 0.0 | 0.0 | 0.00 | 0.41 | 0.38 | 1 | 1012.4 |
| 20260506200030 | 5 | 96 | 0.0 | 0.0 | 0.00 | 0.41 | 0.38 | 1 | 1012.3 |
| 20260506194525 | 5 | 96 | 0.0 | 0.0 | 0.00 | 0.46 | 0.38 | 1 | 1012.0 |
| 20260506193020 | 6 | 36 | 0.0 | 0.0 | 0.00 | 0.46 | 0.38 | 1 | 1011.9 |
| 20260506191516 | 6 | 36 | 0.0 | 0.0 | 0.00 | 0.46 | 0.38 | 1 | 1011.8 |
| 20260506190021 | 6 | 10 | 0.0 | 0.0 | 0.00 | 0.46 | 0.38 | 1 | 1011.9 |
| 20260506184508 | 7 | 10 | 0.0 | 0.0 | 0.00 | 0.48 | 0.38 | 1 | 1011.5 |
| 20260506183006 | 7 | 10 | 0.0 | 0.0 | 0.00 | 0.48 | 0.38 | 1 | 1011.4 |
| 20260506181602 | 7 | 10 | 0.0 | 0.0 | 0.00 | 0.48 | 0.38 | 1 | 1011.3 |
| 20260506180113 | 8 | 10 | 0.0 | 0.0 | 0.00 | 0.48 | 0.38 | 1 | 1011.2 |
| 20260506174551 | 8 | 9 | 0.0 | 0.0 | 0.00 | 0.48 | 0.38 | 1 | 1010.9 |
| 20260506173101 | 8 | 9 | 0.0 | 0.0 | 0.00 | 0.48 | 0.38 | 1 | 1010.7 |
| 20260506171544 | 8 | 9 | 0.0 | 0.0 | 0.00 | 0.48 | 0.38 | 1 | 1010.5 |
| 20260506170036 | 8 | 9 | 0.0 | 0.0 | 0.00 | 0.48 | 0.38 | 1 | 1010.3 |
| 20260506164532 | 8 | 9 | 0.0 | 0.0 | 0.00 | 0.48 | 0.38 | 1 | 1010.1 |
| 20260506163028 | 8 | 9 | 0.0 | 0.0 | 0.00 | 0.48 | 0.38 | 1 | 1010.2 |
| 20260506161524 | 9 | 9 | 0.0 | 0.0 | 0.00 | 0.48 | 0.38 | 1 | 1010.2 |
| 20260506160020 | 9 | 9 | 0.0 | 3.2 | 0.00 | 0.48 | 0.38 | 1 | 1010.2 |
| 20260506154515 | 8 | 139 | 0.0 | 0.0 | 0.00 | 0.48 | 0.38 | 1 | 1010.4 |
| 20260506153011 | 8 | 139 | 0.0 | 1.6 | 0.05 | 0.48 | 0.38 | 1 | 1010.6 |
| 20260506151507 | 8 | 140 | 0.0 | 0.0 | 0.13 | 0.48 | 0.38 | 1 | 1010.7 |
| 20260506150002 | 8 | 129 | 0.0 | 4.8 | 0.18 | 0.48 | 0.38 | 1 | 1010.8 |
| 20260506144607 | 7 | 81 | 0.0 | 0.0 | 0.20 | 0.48 | 0.38 | 1 | 1010.9 |
| 20260506143053 | 8 | 248 | 0.0 | 8.0 | 0.25 | 0.43 | 0.33 | 1 | 1011.1 |
| 20260506141547 | 8 | 298 | 0.0 | 3.2 | 0.20 | 0.36 | 0.25 | 1 | 1010.9 |
| 20260506140044 | 8 | 304 | 0.0 | 0.0 | 0.15 | 0.30 | 0.20 | 1 | 1010.8 |
| 20260506134538 | 9 | 5 | 0.0 | 6.4 | 0.13 | 0.30 | 0.18 | 1 | 1010.4 |
| 20260506133041 | 11 | 330 | 0.0 | 11.3 | 0.03 | 0.20 | 0.08 | 1 | 1009.5 |
| 20260506131532 | 11 | 267 | 0.0 | 0.0 | 0.00 | 0.18 | 0.05 | 1 | 1009.2 |
| 20260506130025 | 11 | 277 | 0.0 | 0.0 | 0.03 | 0.18 | 0.05 | 1 | 1009.3 |
| 20260506124522 | 11 | 308 | 0.0 | 0.0 | 0.03 | 0.20 | 0.05 | 1 | 1009.6 |
| 20260506123017 | 11 | 314 | 0.0 | 3.2 | 0.03 | 0.20 | 0.05 | 16 | 1009.4 |
| 20260506121512 | 12 | 329 | 0.0 | 3.2 | 0.03 | 0.20 | 0.05 | 37 | 1009.2 |
| 20260506120021 | 12 | 309 | 0.0 | 0.0 | 0.00 | 0.18 | 0.05 | 39 | 1009.2 |
| 20260506114505 | 12 | 317 | 0.0 | 0.0 | 0.00 | 0.23 | 0.05 | 22 | 1009.6 |
| 20260506113101 | 11 | 298 | 0.0 | 3.2 | 0.00 | 0.23 | 0.05 | 2 | 1009.8 |
| 20260506111558 | 11 | 249 | 0.0 | 3.2 | 0.00 | 0.23 | 0.05 | 2 | 1010.0 |
| 20260506110051 | 11 | 123 | 0.0 | 0.0 | 0.00 | 0.23 | 0.05 | 2 | 1010.1 |
| 20260506104554 | 11 | 123 | 0.0 | 0.0 | 0.00 | 0.23 | 0.05 | 1 | 1010.4 |
| 20260506103043 | 10 | 123 | 0.0 | 0.0 | 0.00 | 0.23 | 0.05 | 1 | 1010.5 |